Location: Chanteloup
(48.8560°N, 2.7390°E)
Time: 07:21:58
(UTC+00:00)

CENTAUR R/B - Pass Details

Date: 29 May 2022
Orbit: 716 x 1471 km, 63.4° (Epoch: 08 May)

Event Time Altitude Azimuth Distance (km) Brightness Sun altitude
Rises 20:30:26 0° 307° (NW) 4,340 8.2 -7.0°
Reaches altitude 10° 20:35:20 10° 282° (WNW) 3,486 6.3 -7.6°
Maximum altitude 20:38:41 13° 259° (WSW) 3,324 5.7 -8.0°
Drops below altitude 10° 20:42:07 10° 236° (SW) 3,580 5.6 -8.3°
Sets 20:47:21 0° 211° (SSW) 4,573 5.8 -8.9°
